contact:dominique.lefevre@mio.osupytheas.fr, maurice.libes@osupytheas.fr, didier.mallarino@osupytheas.fr
Project:EMSO http://www.emso-fr.org/EMSO-France
Depth: 2436.0 m
Title:EMSO Ligure Ouest : Data MII capteur AQUADOPP
Date,Latitude,Longitude,X_East,Y_North,Z_Up,Amplitude_X,Amplitude_Y,Amplitude_Z,Batterie,SoundSpeed,Heading,Pitch,Roll,Pressure,TIS,Speed,Direction
, degrees North, degrees East, m.s-1, m.s-1,m.s-1, 1, 1, 1, Volt, m.s-1, degree, degree, degree, dbar, degree_C, m.s-1, degree
2020-03-23T00:04:02,42.805,6.029,0.022,0.024,-0.06,103.0,110.0,99.0,13.4,1505.3,328.6,-0.7,1.8,2470.156,13.32,0.032,42.5
2020-03-23T00:07:02,42.805,6.029,0.012,0.041,-0.016,101.0,111.0,99.0,13.3,1505.3,326.5,-0.7,1.8,2470.252,13.32,0.042,16.3
2020-03-23T00:10:02,42.805,6.029,0.006,0.019,-0.052,103.0,110.0,100.0,13.4,1505.3,327.4,-0.7,1.9,2470.176,13.33,0.019,17.5
2020-03-23T00:13:02,42.805,6.029,0.019,0.021,-0.028,103.0,110.0,101.0,13.4,1505.3,327.0,-0.8,1.8,2470.159,13.33,0.028,42.1
2020-03-23T00:16:02,42.805,6.029,0.026,0.029,-0.014,104.0,109.0,99.0,13.4,1505.3,323.9,-0.7,1.8,2470.139,13.33,0.038,41.9
2020-03-23T00:19:03,42.805,6.029,0.0,0.017,-0.047,102.0,110.0,101.0,13.4,1505.3,326.7,-0.7,1.8,2470.116,13.33,0.017,0.0
2020-03-23T00:22:02,42.805,6.029,-0.006,0.029,-0.051,102.0,110.0,100.0,13.4,1505.3,327.4,-0.7,1.9,2470.094,13.33,0.029,348.3
2020-03-23T00:25:02,42.805,6.029,0.015,0.016,-0.061,103.0,110.0,100.0,13.4,1505.3,325.6,-0.7,1.8,2470.135,13.33,0.021,43.1
2020-03-23T00:28:03,42.805,6.029,0.007,0.038,-0.04,101.0,109.0,100.0,13.4,1505.3,325.5,-0.7,1.9,2470.164,13.33,0.038,10.4
2020-03-23T00:31:02,42.805,6.029,0.003,0.025,-0.04,103.0,111.0,99.0,13.3,1505.3,324.3,-0.7,1.8,2470.161,13.33,0.025,6.8
2020-03-23T00:34:03,42.805,6.029,-0.002,0.03,-0.063,102.0,112.0,99.0,13.3,1505.3,326.1,-0.7,1.9,2470.148,13.33,0.03,356.2
2020-03-23T00:37:02,42.805,6.029,0.009,0.009,-0.068,102.0,110.0,100.0,13.3,1505.4,327.6,-0.7,1.8,2470.148,13.34,0.012,45.0
2020-03-23T00:40:03,42.805,6.029,-0.004,0.023,-0.053,102.0,110.0,99.0,13.4,1505.4,324.6,-0.7,1.8,2470.089,13.34,0.023,350.1
2020-03-23T00:43:03,42.805,6.029,-0.007,0.027,-0.031,103.0,109.0,101.0,13.3,1505.4,324.4,-0.7,1.8,2470.142,13.34,0.027,345.5
2020-03-23T00:46:02,42.805,6.029,0.008,0.051,-0.019,102.0,109.0,100.0,13.3,1505.4,327.3,-0.7,1.8,2470.151,13.34,0.051,8.9
2020-03-23T00:49:02,42.805,6.029,0.007,0.023,-0.053,104.0,110.0,103.0,13.3,1505.4,325.3,-0.7,1.8,2470.136,13.34,0.024,16.9
2020-03-23T00:52:02,42.805,6.029,-0.026,0.016,-0.079,103.0,110.0,100.0,13.4,1505.4,322.9,-0.7,1.8,2470.13,13.34,0.03,301.6
2020-03-23T00:55:02,42.805,6.029,0.0,0.026,0.001,103.0,110.0,100.0,13.4,1505.4,323.0,-0.7,1.8,2470.154,13.35,0.026,0.0
2020-03-23T00:58:03,42.805,6.029,0.008,0.026,-0.029,103.0,111.0,100.0,13.4,1505.4,325.1,-0.7,1.8,2470.108,13.34,0.027,17.1
2020-03-23T01:04:02,42.805,6.029,0.004,0.019,-0.037,104.0,112.0,102.0,13.3,1505.3,326.9,-0.8,1.8,2470.135,13.33,0.019,11.9
2020-03-23T01:07:02,42.805,6.029,-0.012,0.026,-0.037,104.0,111.0,100.0,13.4,1505.4,326.8,-0.7,1.8,2470.129,13.34,0.028,335.2
2020-03-23T01:10:03,42.805,6.029,0.0,0.033,-0.064,103.0,111.0,100.0,13.3,1505.4,326.9,-0.7,1.9,2470.141,13.34,0.033,0.0
2020-03-23T01:13:03,42.805,6.029,0.006,0.025,-0.061,104.0,110.0,100.0,13.4,1505.4,326.7,-0.8,1.8,2470.125,13.34,0.025,13.5
2020-03-23T01:16:03,42.805,6.029,-0.008,0.036,-0.052,105.0,111.0,100.0,13.4,1505.4,324.6,-0.7,1.8,2470.16,13.34,0.036,347.5
2020-03-23T01:19:02,42.805,6.029,0.008,0.014,-0.076,105.0,109.0,100.0,13.4,1505.4,326.9,-0.7,1.8,2470.085,13.34,0.016,29.7
2020-03-23T01:22:02,42.805,6.029,0.001,0.021,-0.026,102.0,110.0,100.0,13.4,1505.4,324.2,-0.7,1.8,2470.168,13.34,0.021,2.7
2020-03-23T01:25:03,42.805,6.029,-0.015,0.017,-0.049,104.0,110.0,101.0,13.3,1505.4,324.7,-0.7,1.8,2470.124,13.34,0.022,318.6
2020-03-23T01:28:03,42.805,6.029,-0.001,0.024,-0.015,103.0,111.0,101.0,13.4,1505.4,324.2,-0.7,1.8,2470.148,13.34,0.024,357.6
2020-03-23T01:31:03,42.805,6.029,-0.001,0.049,-0.039,103.0,112.0,100.0,13.4,1505.4,324.7,-0.7,1.8,2470.175,13.34,0.049,358.8
2020-03-23T01:34:03,42.805,6.029,-0.009,0.016,-0.06,105.0,110.0,100.0,13.3,1505.4,326.2,-0.7,1.8,2470.129,13.34,0.018,330.6
2020-03-23T01:37:02,42.805,6.029,-0.002,0.024,-0.054,104.0,110.0,100.0,13.3,1505.4,327.0,-0.7,1.8,2470.128,13.34,0.024,355.2
2020-03-23T01:40:03,42.805,6.029,-0.007,0.038,-0.032,103.0,112.0,100.0,13.4,1505.4,327.8,-0.7,1.8,2470.121,13.34,0.038,349.6
2020-03-23T01:43:02,42.805,6.029,0.027,0.04,-0.038,103.0,111.0,100.0,13.3,1505.4,327.1,-0.7,1.9,2470.089,13.34,0.048,34.0
2020-03-23T01:46:02,42.805,6.029,-0.006,0.022,-0.049,103.0,112.0,100.0,13.4,1505.4,324.4,-0.7,1.8,2470.134,13.34,0.022,344.7
2020-03-23T01:49:03,42.805,6.029,0.013,0.032,-0.018,104.0,109.0,101.0,13.4,1505.4,327.1,-0.7,1.8,2470.116,13.34,0.034,22.1
2020-03-23T01:52:02,42.805,6.029,-0.018,0.053,-0.038,104.0,109.0,100.0,13.4,1505.4,327.5,-0.7,1.8,2470.154,13.34,0.055,341.2
2020-03-23T01:55:03,42.805,6.029,-0.018,0.026,-0.031,103.0,112.0,101.0,13.3,1505.4,325.4,-0.7,1.8,2470.125,13.34,0.031,325.3
2020-03-23T01:58:03,42.805,6.029,-0.016,0.022,-0.022,102.0,112.0,102.0,13.4,1505.4,325.5,-0.7,1.8,2470.103,13.34,0.027,324.0
2020-03-23T02:04:02,42.805,6.029,0.01,0.025,-0.051,103.0,110.0,101.0,13.4,1505.3,325.6,-0.7,1.8,2470.166,13.33,0.026,21.8
2020-03-23T02:07:02,42.805,6.029,-0.003,0.028,-0.034,103.0,110.0,101.0,13.4,1505.3,325.8,-0.7,1.8,2470.132,13.33,0.028,353.9
2020-03-23T02:10:02,42.805,6.029,0.002,0.029,-0.037,104.0,110.0,100.0,13.4,1505.3,326.3,-0.7,1.8,2470.124,13.33,0.029,3.9
2020-03-23T02:13:03,42.805,6.029,-0.011,0.023,-0.056,104.0,110.0,100.0,13.4,1505.4,325.0,-0.7,1.8,2470.164,13.34,0.025,334.4
2020-03-23T02:16:03,42.805,6.029,0.0,0.015,-0.021,104.0,112.0,100.0,13.4,1505.4,326.0,-0.7,1.8,2470.143,13.34,0.015,0.0
2020-03-23T02:19:03,42.805,6.029,-0.006,0.034,-0.034,102.0,111.0,101.0,13.4,1505.4,325.6,-0.7,1.8,2470.18,13.34,0.034,350.0
2020-03-23T02:22:02,42.805,6.029,-0.027,0.036,-0.077,104.0,112.0,98.0,13.3,1505.4,324.8,-0.7,1.8,2470.18,13.34,0.045,323.1
2020-03-23T02:25:03,42.805,6.029,-0.014,0.04,-0.046,105.0,111.0,101.0,13.4,1505.4,323.9,-0.7,1.8,2470.172,13.34,0.042,340.7
2020-03-23T02:28:03,42.805,6.029,0.001,0.032,-0.01,102.0,110.0,101.0,13.4,1505.4,323.2,-0.7,1.8,2470.142,13.34,0.032,1.8
2020-03-23T02:31:03,42.805,6.029,-0.022,0.023,-0.053,104.0,111.0,101.0,13.3,1505.4,326.6,-0.7,1.8,2470.149,13.34,0.031,316.3
2020-03-23T02:34:03,42.805,6.029,-0.022,0.053,-0.085,104.0,109.0,99.0,13.4,1505.4,327.0,-0.7,1.8,2470.086,13.34,0.057,337.5
2020-03-23T02:37:02,42.805,6.029,0.018,0.03,-0.014,102.0,110.0,100.0,13.4,1505.4,325.7,-0.7,1.8,2470.123,13.34,0.034,31.0
2020-03-23T02:40:03,42.805,6.029,-0.002,0.015,-0.045,101.0,111.0,102.0,13.4,1505.4,325.8,-0.7,1.8,2470.174,13.34,0.015,352.4
2020-03-23T02:43:03,42.805,6.029,-0.009,0.047,-0.024,103.0,109.0,101.0,13.3,1505.4,326.5,-0.7,1.8,2470.135,13.34,0.047,349.2
2020-03-23T02:46:03,42.805,6.029,-0.026,0.033,-0.071,104.0,110.0,100.0,13.4,1505.4,324.2,-0.7,1.8,2470.155,13.34,0.042,321.8
2020-03-23T02:49:03,42.805,6.029,-0.013,0.026,-0.043,103.0,111.0,100.0,13.4,1505.4,324.3,-0.7,1.8,2470.158,13.34,0.029,333.4
2020-03-23T02:52:02,42.805,6.029,-0.041,0.029,-0.024,103.0,112.0,102.0,13.4,1505.4,326.3,-0.7,1.8,2470.143,13.34,0.05,305.3
2020-03-23T02:55:03,42.805,6.029,-0.025,0.037,-0.034,104.0,111.0,100.0,13.4,1505.4,326.9,-0.7,1.8,2470.164,13.34,0.044,326.0
2020-03-23T02:58:03,42.805,6.029,-0.03,0.038,-0.023,103.0,111.0,99.0,13.4,1505.4,327.0,-0.7,1.8,2470.15,13.34,0.048,321.7
2020-03-23T03:04:02,42.805,6.029,0.016,0.04,-0.022,103.0,111.0,101.0,13.3,1505.3,325.0,-0.8,1.8,2470.165,13.32,0.043,21.8
2020-03-23T03:07:02,42.805,6.029,-0.005,0.063,-0.056,103.0,110.0,99.0,13.4,1505.3,325.7,-0.7,1.9,2470.174,13.33,0.063,355.5
2020-03-23T03:10:03,42.805,6.029,-0.003,0.05,-0.024,104.0,110.0,100.0,13.4,1505.3,326.5,-0.7,1.8,2470.174,13.33,0.05,356.6
2020-03-23T03:13:03,42.805,6.029,-0.026,0.011,-0.07,104.0,111.0,101.0,13.3,1505.3,325.1,-0.7,1.8,2470.191,13.33,0.028,292.9
2020-03-23T03:16:03,42.805,6.029,-0.015,0.008,-0.067,105.0,112.0,100.0,13.3,1505.4,325.0,-0.7,1.8,2470.165,13.34,0.017,298.1
2020-03-23T03:19:03,42.805,6.029,-0.056,0.014,-0.101,104.0,111.0,102.0,13.4,1505.4,325.0,-0.7,1.9,2470.185,13.34,0.057,284.0
2020-03-23T03:22:02,42.805,6.029,0.008,0.024,-0.047,102.0,112.0,102.0,13.3,1505.4,325.7,-0.7,1.9,2470.174,13.34,0.025,18.4
2020-03-23T03:25:03,42.805,6.029,-0.027,0.043,-0.049,104.0,111.0,100.0,13.4,1505.4,326.0,-0.7,1.8,2470.187,13.34,0.05,327.9
2020-03-23T03:28:03,42.805,6.029,-0.038,0.038,-0.036,102.0,111.0,101.0,13.3,1505.4,328.7,-0.7,1.8,2470.201,13.34,0.053,315.0
2020-03-23T03:31:03,42.805,6.029,0.018,0.035,-0.011,104.0,110.0,100.0,13.3,1505.4,327.3,-0.7,1.8,2470.172,13.34,0.039,27.2
2020-03-23T03:34:03,42.805,6.029,-0.004,0.036,-0.022,101.0,111.0,99.0,13.4,1505.4,325.8,-0.8,1.8,2470.177,13.34,0.036,353.7
2020-03-23T03:37:02,42.805,6.029,-0.005,0.04,-0.032,102.0,111.0,101.0,13.4,1505.4,326.4,-0.8,1.8,2470.183,13.34,0.04,352.9
2020-03-23T03:40:03,42.805,6.029,-0.014,0.055,-0.015,103.0,110.0,101.0,13.3,1505.4,324.5,-0.7,1.8,2470.195,13.34,0.056,345.7
2020-03-23T03:43:03,42.805,6.029,0.011,0.031,-0.011,102.0,111.0,100.0,13.4,1505.4,327.0,-0.7,1.9,2470.217,13.34,0.032,19.5
2020-03-23T03:46:03,42.805,6.029,0.008,0.032,-0.004,102.0,110.0,100.0,13.4,1505.4,326.8,-0.7,1.9,2470.22,13.34,0.032,14.0
2020-03-23T03:49:03,42.805,6.029,-0.005,0.034,-0.046,104.0,110.0,100.0,13.4,1505.4,327.1,-0.7,1.9,2470.187,13.34,0.034,351.6
2020-03-23T03:52:02,42.805,6.029,-0.014,0.032,-0.052,103.0,110.0,101.0,13.3,1505.4,326.3,-0.7,1.8,2470.226,13.34,0.034,336.4
2020-03-23T03:55:03,42.805,6.029,-0.005,0.035,-0.072,102.0,111.0,102.0,13.4,1505.4,323.5,-0.7,1.8,2470.19,13.34,0.035,351.9
2020-03-23T03:58:03,42.805,6.029,0.006,0.061,-0.025,104.0,108.0,100.0,13.4,1505.4,325.0,-0.7,1.8,2470.212,13.34,0.061,5.6
2020-03-23T04:04:02,42.805,6.029,-0.031,0.049,-0.037,102.0,110.0,101.0,13.3,1505.3,327.0,-0.7,1.8,2470.248,13.32,0.057,327.7
2020-03-23T04:07:02,42.805,6.029,-0.001,0.054,-0.059,103.0,110.0,100.0,13.4,1505.3,326.6,-0.7,1.8,2470.236,13.32,0.054,358.9
2020-03-23T04:10:03,42.805,6.029,-0.004,0.026,-0.022,102.0,110.0,100.0,13.4,1505.3,327.0,-0.7,1.9,2470.271,13.33,0.026,351.3
2020-03-23T04:13:02,42.805,6.029,0.007,0.034,-0.04,102.0,110.0,100.0,13.4,1505.3,326.9,-0.7,1.8,2470.259,13.33,0.034,11.6
2020-03-23T04:16:03,42.805,6.029,0.001,0.044,-0.012,103.0,110.0,101.0,13.4,1505.3,327.2,-0.7,1.8,2470.252,13.33,0.044,1.3
2020-03-23T04:19:03,42.805,6.029,0.003,0.028,-0.025,102.0,111.0,100.0,13.3,1505.3,323.8,-0.7,1.9,2470.27,13.33,0.028,6.1
2020-03-23T04:22:02,42.805,6.029,-0.011,0.024,-0.05,104.0,110.0,101.0,13.3,1505.3,325.7,-0.7,1.8,2470.225,13.33,0.026,335.4
2020-03-23T04:28:02,42.805,6.029,-0.033,0.026,-0.064,103.0,111.0,100.0,13.4,1505.3,325.9,-0.7,1.8,2470.244,13.32,0.042,308.2
2020-03-23T04:31:03,42.805,6.029,0.014,0.041,-0.033,103.0,110.0,101.0,13.3,1505.3,323.9,-0.7,1.8,2470.261,13.32,0.043,18.9
2020-03-23T04:34:02,42.805,6.029,-0.015,0.026,-0.058,103.0,110.0,100.0,13.3,1505.3,326.0,-0.7,1.8,2470.27,13.33,0.03,330.0
2020-03-23T04:37:02,42.805,6.029,-0.012,0.036,-0.046,103.0,110.0,100.0,13.4,1505.3,325.4,-0.7,1.8,2470.28,13.33,0.037,341.6
2020-03-23T04:40:03,42.805,6.029,0.004,0.045,-0.026,102.0,110.0,100.0,13.4,1505.3,327.0,-0.7,1.8,2470.252,13.33,0.045,5.1
2020-03-23T04:43:03,42.805,6.029,-0.003,0.03,0.002,104.0,111.0,101.0,13.3,1505.3,323.3,-0.7,1.8,2470.299,13.33,0.03,354.3
2020-03-23T04:46:03,42.805,6.029,-0.019,0.037,-0.048,103.0,111.0,101.0,13.4,1505.4,327.1,-0.7,1.8,2470.276,13.34,0.041,332.8
2020-03-23T04:49:03,42.805,6.029,-0.001,0.029,-0.046,103.0,113.0,101.0,13.4,1505.4,325.6,-0.7,1.8,2470.329,13.34,0.029,358.0
2020-03-23T04:52:02,42.805,6.029,-0.002,0.036,-0.026,103.0,110.0,101.0,13.4,1505.4,326.0,-0.7,1.9,2470.287,13.34,0.036,356.8
2020-03-23T04:55:03,42.805,6.029,0.007,0.044,0.003,101.0,112.0,101.0,13.4,1505.4,324.7,-0.7,1.8,2470.342,13.34,0.044,9.0
2020-03-23T04:58:03,42.805,6.029,-0.004,0.019,-0.039,104.0,111.0,101.0,13.4,1505.4,324.1,-0.7,1.8,2470.278,13.34,0.019,348.1
2020-03-23T05:04:02,42.805,6.029,0.011,0.042,-0.026,103.0,108.0,100.0,13.4,1505.3,324.9,-0.7,1.8,2470.321,13.32,0.043,14.7
2020-03-23T05:07:02,42.805,6.029,0.032,0.042,-0.022,101.0,111.0,101.0,13.4,1505.3,323.7,-0.7,1.9,2470.303,13.33,0.052,37.3
2020-03-23T05:10:02,42.805,6.029,-0.018,0.041,-0.032,101.0,110.0,101.0,13.3,1505.3,326.5,-0.7,1.8,2470.293,13.33,0.044,336.3
2020-03-23T05:13:03,42.805,6.029,0.001,0.045,-0.027,103.0,109.0,101.0,13.4,1505.3,327.5,-0.7,1.8,2470.32,13.33,0.045,1.3
2020-03-23T05:16:03,42.805,6.029,0.004,0.02,-0.014,103.0,111.0,100.0,13.4,1505.3,325.8,-0.7,1.9,2470.343,13.33,0.02,11.3
2020-03-23T05:19:03,42.805,6.029,-0.008,0.031,-0.001,103.0,111.0,100.0,13.4,1505.3,323.9,-0.7,1.8,2470.36,13.33,0.032,345.5
2020-03-23T05:22:02,42.805,6.029,0.017,0.028,-0.002,104.0,111.0,100.0,13.4,1505.4,325.2,-0.7,1.9,2470.314,13.34,0.032,31.3
2020-03-23T05:25:03,42.805,6.029,-0.01,0.035,-0.044,103.0,109.0,101.0,13.4,1505.4,328.1,-0.7,1.8,2470.29,13.34,0.036,344.1
2020-03-23T05:28:03,42.805,6.029,-0.005,0.055,-0.023,102.0,111.0,100.0,13.3,1505.3,326.7,-0.7,1.8,2470.35,13.33,0.055,354.8
2020-03-23T05:31:02,42.805,6.029,0.03,0.029,-0.02,105.0,109.0,100.0,13.4,1505.4,328.0,-0.7,1.9,2470.367,13.34,0.041,46.0
2020-03-23T05:34:03,42.805,6.029,0.015,0.038,-0.018,104.0,110.0,102.0,13.4,1505.4,327.0,-0.7,1.8,2470.322,13.34,0.04,21.5
2020-03-23T05:37:02,42.805,6.029,0.003,0.026,-0.037,104.0,110.0,101.0,13.4,1505.3,325.3,-0.7,1.8,2470.309,13.33,0.026,6.6
2020-03-23T05:40:03,42.805,6.029,0.004,0.016,-0.007,102.0,110.0,101.0,13.4,1505.3,328.1,-0.7,1.8,2470.338,13.33,0.016,14.0
2020-03-23T05:43:02,42.805,6.029,-0.006,0.037,-0.039,102.0,109.0,101.0,13.4,1505.3,323.4,-0.7,1.8,2470.339,13.33,0.037,350.8
2020-03-23T05:46:03,42.805,6.029,-0.012,0.022,-0.056,103.0,110.0,100.0,13.4,1505.3,325.9,-0.7,1.8,2470.322,13.33,0.025,331.4
2020-03-23T05:49:03,42.805,6.029,-0.007,0.035,-0.019,102.0,109.0,101.0,13.4,1505.4,326.0,-0.7,1.8,2470.32,13.34,0.035,348.7
2020-03-23T05:52:02,42.805,6.029,0.016,0.034,-0.053,103.0,111.0,100.0,13.4,1505.4,327.1,-0.7,1.8,2470.319,13.34,0.037,25.2
2020-03-23T05:55:03,42.805,6.029,0.001,0.044,-0.027,102.0,111.0,100.0,13.4,1505.4,326.9,-0.7,1.8,2470.316,13.34,0.044,1.3
2020-03-23T05:58:03,42.805,6.029,0.014,0.017,-0.043,101.0,110.0,99.0,13.3,1505.4,325.9,-0.7,1.9,2470.306,13.34,0.022,39.5
2020-03-23T06:04:02,42.805,6.029,-0.017,0.029,-0.076,102.0,110.0,102.0,13.4,1505.3,326.9,-0.7,1.8,2470.376,13.32,0.033,329.6
2020-03-23T06:07:02,42.805,6.029,0.003,0.029,-0.037,103.0,109.0,101.0,13.4,1505.3,322.8,-0.7,1.8,2470.336,13.32,0.029,5.9
2020-03-23T06:10:03,42.805,6.029,-0.027,0.017,-0.037,103.0,113.0,101.0,13.3,1505.3,326.4,-0.7,1.8,2470.356,13.33,0.031,302.2
2020-03-23T06:13:03,42.805,6.029,0.015,0.03,-0.011,102.0,111.0,101.0,13.4,1505.3,326.7,-0.7,1.9,2470.33,13.33,0.033,26.6
2020-03-23T06:16:02,42.805,6.029,-0.006,0.027,-0.033,101.0,110.0,100.0,13.3,1505.3,328.4,-0.7,1.8,2470.343,13.33,0.027,347.5
2020-03-23T06:19:03,42.805,6.029,0.007,0.027,-0.025,103.0,110.0,99.0,13.4,1505.3,325.5,-0.7,1.8,2470.324,13.33,0.027,14.5
2020-03-23T06:22:02,42.805,6.029,-0.02,0.016,-0.061,103.0,110.0,100.0,13.4,1505.3,324.8,-0.7,1.8,2470.35,13.33,0.025,308.7
2020-03-23T06:25:03,42.805,6.029,-0.002,0.033,0.0,102.0,111.0,100.0,13.4,1505.3,323.6,-0.7,1.8,2470.383,13.33,0.033,356.5
2020-03-23T06:28:03,42.805,6.029,0.003,0.046,-0.036,102.0,110.0,102.0,13.4,1505.3,326.7,-0.7,1.8,2470.374,13.33,0.046,3.7
2020-03-23T06:31:02,42.805,6.029,0.004,0.042,-0.014,104.0,110.0,100.0,13.4,1505.3,324.6,-0.7,1.8,2470.344,13.33,0.042,5.4
2020-03-23T06:34:03,42.805,6.029,-0.003,0.026,-0.044,102.0,110.0,101.0,13.3,1505.3,326.4,-0.7,1.8,2470.355,13.33,0.026,353.4
2020-03-23T06:37:02,42.805,6.029,0.003,0.011,-0.028,102.0,110.0,100.0,13.3,1505.3,324.9,-0.7,1.8,2470.377,13.33,0.011,15.3
2020-03-23T06:40:03,42.805,6.029,0.004,0.028,-0.022,103.0,111.0,100.0,13.4,1505.3,326.9,-0.7,1.9,2470.34,13.33,0.028,8.1
2020-03-23T06:43:03,42.805,6.029,0.007,0.021,-0.054,104.0,109.0,100.0,13.3,1505.3,326.7,-0.7,1.9,2470.365,13.33,0.022,18.4
2020-03-23T06:46:03,42.805,6.029,-0.007,0.04,-0.022,103.0,110.0,99.0,13.4,1505.3,326.8,-0.7,1.8,2470.374,13.33,0.04,350.1
2020-03-23T06:49:03,42.805,6.029,-0.022,0.031,-0.045,103.0,111.0,100.0,13.4,1505.3,327.0,-0.7,1.8,2470.309,13.33,0.038,324.6
2020-03-23T06:52:02,42.805,6.029,-0.013,0.049,-0.015,105.0,110.0,100.0,13.4,1505.3,323.0,-0.7,1.8,2470.333,13.33,0.05,345.1
2020-03-23T06:55:03,42.805,6.029,0.007,0.024,-0.009,103.0,110.0,100.0,13.4,1505.4,326.6,-0.7,1.8,2470.36,13.34,0.025,16.3
2020-03-23T06:58:03,42.805,6.029,-0.014,0.028,-0.029,103.0,109.0,100.0,13.3,1505.4,328.5,-0.7,1.8,2470.383,13.34,0.031,333.4
2020-03-23T07:04:02,42.805,6.029,0.012,0.016,-0.015,104.0,111.0,101.0,13.3,1505.3,323.2,-0.7,1.8,2470.374,13.32,0.02,36.9
2020-03-23T07:07:02,42.805,6.029,0.008,0.037,-0.007,103.0,109.0,102.0,13.4,1505.3,324.2,-0.7,1.8,2470.378,13.33,0.037,12.2
2020-03-23T07:10:03,42.805,6.029,-0.009,0.02,-0.033,103.0,111.0,100.0,13.4,1505.3,327.8,-0.7,1.9,2470.377,13.33,0.021,335.8
2020-03-23T07:13:03,42.805,6.029,0.015,0.025,-0.066,105.0,110.0,100.0,13.4,1505.3,324.7,-0.7,1.8,2470.369,13.33,0.029,31.0
2020-03-23T07:16:03,42.805,6.029,0.002,0.035,-0.011,103.0,109.0,101.0,13.4,1505.3,323.6,-0.7,1.8,2470.391,13.33,0.035,3.3
2020-03-23T07:19:03,42.805,6.029,-0.002,0.04,-0.066,103.0,110.0,101.0,13.4,1505.4,326.3,-0.7,1.8,2470.363,13.34,0.04,357.1
2020-03-23T07:22:02,42.805,6.029,-0.002,0.025,-0.068,103.0,111.0,100.0,13.4,1505.4,324.7,-0.7,1.9,2470.307,13.34,0.025,355.4
2020-03-23T07:25:03,42.805,6.029,-0.011,0.03,-0.047,103.0,111.0,100.0,13.3,1505.4,324.9,-0.7,1.8,2470.357,13.34,0.031,339.9
2020-03-23T07:28:03,42.805,6.029,-0.013,0.039,-0.028,103.0,111.0,100.0,13.4,1505.4,328.6,-0.7,1.9,2470.36,13.34,0.041,341.6
2020-03-23T07:31:03,42.805,6.029,0.013,0.032,-0.023,102.0,110.0,100.0,13.4,1505.4,327.8,-0.7,1.8,2470.346,13.34,0.034,22.1
2020-03-23T07:34:03,42.805,6.029,0.001,0.041,0.015,102.0,110.0,101.0,13.3,1505.4,325.2,-0.7,1.8,2470.363,13.34,0.041,1.4
2020-03-23T07:37:02,42.805,6.029,-0.01,0.044,-0.055,103.0,112.0,100.0,13.4,1505.4,325.0,-0.7,1.8,2470.359,13.34,0.045,347.2
2020-03-23T07:40:03,42.805,6.029,-0.005,0.014,-0.022,103.0,110.0,99.0,13.4,1505.4,324.4,-0.7,1.8,2470.379,13.34,0.014,340.4
2020-03-23T07:43:03,42.805,6.029,-0.015,0.048,-0.047,104.0,110.0,100.0,13.3,1505.4,322.6,-0.7,1.8,2470.361,13.34,0.05,342.6
2020-03-23T07:46:03,42.805,6.029,0.004,0.036,-0.02,103.0,110.0,100.0,13.3,1505.4,325.0,-0.7,1.8,2470.353,13.34,0.036,6.3
2020-03-23T07:49:03,42.805,6.029,0.001,0.032,-0.037,103.0,111.0,101.0,13.3,1505.4,326.9,-0.7,1.8,2470.344,13.34,0.032,1.8
2020-03-23T07:52:02,42.805,6.029,-0.008,0.026,-0.03,105.0,112.0,100.0,13.4,1505.4,326.2,-0.7,1.8,2470.357,13.34,0.027,342.9
2020-03-23T07:55:03,42.805,6.029,0.0,0.029,-0.036,102.0,110.0,102.0,13.4,1505.4,326.8,-0.7,1.8,2470.342,13.34,0.028,0.0
2020-03-23T07:58:03,42.805,6.029,0.016,0.025,-0.01,103.0,111.0,100.0,13.3,1505.4,324.8,-0.7,1.9,2470.347,13.34,0.029,32.6
2020-03-23T08:04:02,42.805,6.029,-0.016,0.039,-0.052,106.0,110.0,101.0,13.4,1505.3,323.9,-0.7,1.9,2470.359,13.32,0.042,337.7
2020-03-23T08:07:02,42.805,6.029,0.0,0.045,-0.051,104.0,111.0,100.0,13.3,1505.3,325.8,-0.7,1.8,2470.346,13.33,0.045,0.0
2020-03-23T08:10:03,42.805,6.029,-0.002,0.03,-0.029,104.0,110.0,101.0,13.4,1505.3,327.0,-0.7,1.8,2470.351,13.33,0.03,356.2
2020-03-23T08:13:03,42.805,6.029,0.023,0.016,-0.02,103.0,110.0,101.0,13.4,1505.3,327.1,-0.7,1.9,2470.346,13.33,0.028,55.2
2020-03-23T08:16:03,42.805,6.029,0.001,0.023,-0.02,103.0,111.0,100.0,13.4,1505.3,327.0,-0.7,1.9,2470.387,13.33,0.023,2.5
2020-03-23T08:19:03,42.805,6.029,0.003,0.033,-0.048,104.0,110.0,101.0,13.4,1505.3,324.7,-0.7,1.8,2470.371,13.33,0.033,5.2
2020-03-23T08:22:02,42.805,6.029,0.008,0.021,-0.025,104.0,110.0,101.0,13.3,1505.4,326.8,-0.7,1.8,2470.401,13.34,0.022,20.9
2020-03-23T08:25:03,42.805,6.029,-0.01,0.021,-0.051,104.0,111.0,99.0,13.3,1505.4,326.3,-0.7,1.8,2470.354,13.34,0.023,334.5
2020-03-23T08:28:03,42.805,6.029,0.001,0.04,-0.013,103.0,110.0,101.0,13.4,1505.4,326.8,-0.8,1.8,2470.346,13.34,0.04,1.4
2020-03-23T08:31:03,42.805,6.029,-0.009,0.058,-0.037,105.0,111.0,101.0,13.4,1505.4,324.9,-0.7,1.8,2470.339,13.34,0.058,351.2
2020-03-23T08:34:03,42.805,6.029,-0.003,0.055,-0.033,103.0,111.0,99.0,13.4,1505.4,325.9,-0.7,1.8,2470.392,13.34,0.055,356.9
2020-03-23T08:37:03,42.805,6.029,-0.009,0.025,-0.038,104.0,111.0,101.0,13.4,1505.4,326.1,-0.7,1.8,2470.345,13.34,0.026,340.2
2020-03-23T08:40:03,42.805,6.029,-0.018,0.029,-0.032,103.0,111.0,103.0,13.3,1505.4,325.4,-0.7,1.8,2470.373,13.34,0.034,328.2
2020-03-23T08:43:03,42.805,6.029,-0.018,0.03,-0.029,103.0,110.0,100.0,13.4,1505.4,323.4,-0.7,1.8,2470.306,13.34,0.034,329.0
2020-03-23T08:46:03,42.805,6.029,-0.019,0.032,-0.024,107.0,110.0,100.0,13.4,1505.4,327.9,-0.7,1.8,2470.34,13.34,0.037,329.3
2020-03-23T08:49:03,42.805,6.029,-0.003,0.035,-0.041,103.0,110.0,100.0,13.3,1505.4,326.3,-0.7,1.8,2470.236,13.34,0.035,355.1
2020-03-23T08:52:02,42.805,6.029,0.005,0.024,-0.044,104.0,111.0,102.0,13.3,1505.4,324.5,-0.7,1.9,2470.369,13.34,0.024,11.8
2020-03-23T08:55:03,42.805,6.029,0.011,0.036,-0.038,103.0,110.0,101.0,13.4,1505.4,326.8,-0.7,1.8,2470.337,13.34,0.037,17.0
2020-03-23T08:58:03,42.805,6.029,0.012,0.021,-0.016,103.0,111.0,100.0,13.3,1505.4,323.2,-0.7,1.8,2470.34,13.34,0.024,29.7
2020-03-23T09:04:02,42.805,6.029,-0.02,0.017,-0.066,103.0,110.0,101.0,13.3,1505.3,325.5,-0.8,1.8,2470.354,13.32,0.026,310.4
2020-03-23T09:07:02,42.805,6.029,0.002,0.027,-0.028,102.0,110.0,101.0,13.3,1505.3,326.6,-0.7,1.8,2470.343,13.33,0.027,4.2
2020-03-23T09:10:03,42.805,6.029,0.014,0.029,-0.047,103.0,111.0,101.0,13.4,1505.3,327.2,-0.7,1.8,2470.343,13.33,0.032,25.8
2020-03-23T09:13:03,42.805,6.029,0.0,0.025,-0.054,101.0,110.0,100.0,13.4,1505.3,325.1,-0.7,1.8,2470.352,13.33,0.025,0.0
2020-03-23T09:16:03,42.805,6.029,0.0,0.046,-0.021,102.0,108.0,101.0,13.4,1505.3,324.7,-0.7,1.8,2470.344,13.33,0.046,0.0
2020-03-23T09:19:03,42.805,6.029,0.013,0.027,-0.053,103.0,110.0,99.0,13.4,1505.4,323.7,-0.7,1.8,2470.34,13.34,0.029,25.7
2020-03-23T09:22:02,42.805,6.029,0.014,0.058,-0.031,102.0,108.0,101.0,13.4,1505.4,324.6,-0.7,1.8,2470.304,13.34,0.059,13.6
2020-03-23T09:25:03,42.805,6.029,0.016,0.043,-0.013,104.0,108.0,101.0,13.4,1505.4,323.2,-0.7,1.8,2470.308,13.34,0.045,20.4
2020-03-23T09:28:03,42.805,6.029,-0.012,0.03,-0.04,104.0,110.0,99.0,13.3,1505.4,325.7,-0.7,1.9,2470.289,13.34,0.032,338.2
2020-03-23T09:31:03,42.805,6.029,0.03,0.042,-0.003,103.0,109.0,101.0,13.4,1505.4,326.9,-0.7,1.8,2470.324,13.34,0.051,35.5
2020-03-23T09:34:03,42.805,6.029,-0.01,0.016,-0.028,104.0,109.0,101.0,13.3,1505.4,325.4,-0.6,1.9,2470.283,13.34,0.018,328.0
2020-03-23T09:37:02,42.805,6.029,0.009,0.018,-0.015,103.0,112.0,102.0,13.4,1505.4,324.4,-0.7,1.8,2470.326,13.34,0.02,26.6
2020-03-23T09:40:03,42.805,6.029,0.017,0.031,-0.013,102.0,110.0,100.0,13.3,1505.4,325.3,-0.7,1.8,2470.313,13.34,0.035,28.7
2020-03-23T09:43:03,42.805,6.029,-0.024,0.037,-0.027,101.0,111.0,101.0,13.4,1505.4,327.3,-0.7,1.8,2470.306,13.34,0.044,327.0
2020-03-23T09:46:03,42.805,6.029,0.002,0.044,-0.041,104.0,110.0,100.0,13.4,1505.4,325.4,-0.7,1.8,2470.259,13.34,0.044,2.6
2020-03-23T09:49:03,42.805,6.029,0.006,0.034,-0.033,103.0,109.0,101.0,13.3,1505.4,327.7,-0.7,1.9,2470.281,13.34,0.034,10.0
2020-03-23T09:52:02,42.805,6.029,0.003,0.041,-0.01,102.0,112.0,101.0,13.3,1505.4,325.7,-0.7,1.8,2470.282,13.34,0.041,4.2
2020-03-23T09:55:03,42.805,6.029,0.003,0.03,-0.023,105.0,110.0,101.0,13.3,1505.4,326.8,-0.7,1.8,2470.29,13.34,0.03,5.7
2020-03-23T09:58:03,42.805,6.029,0.0,0.028,-0.018,103.0,110.0,101.0,13.3,1505.4,323.7,-0.7,1.8,2470.247,13.34,0.028,0.0
2020-03-23T10:04:03,42.805,6.029,-0.008,0.013,-0.025,102.0,110.0,102.0,13.4,1505.3,324.6,-0.7,1.8,2470.32,13.32,0.015,328.4